| time (UTC) | temp F | wind direction | speed knots | gust knots | rain 1hr in | rain 24hr in | rain mn in | humidity % | barometer mb |
| 20260507093554 | 51 | 125 | 0.0 | 0.9 | 0.00 | 0.00 | 0.00 | 93 | 1021.5 |
| 20260507093053 | 51 | 120 | 0.9 | 0.9 | 0.00 | 0.00 | 0.00 | 94 | 1021.5 |
| 20260507092549 | 51 | 140 | 0.0 | 0.9 | 0.00 | 0.00 | 0.00 | 93 | 1021.0 |
| 20260507092046 | 51 | 133 | 0.0 | 0.0 | 0.00 | 0.00 | 0.00 | 93 | 1021.0 |
| 20260507091543 | 51 | 140 | 0.9 | 0.9 | 0.00 | 0.00 | 0.00 | 93 | 1020.7 |
| 20260507091039 | 51 | 127 | 0.0 | 0.0 | 0.00 | 0.00 | 0.00 | 93 | 1020.7 |
| 20260507090535 | 51 | 129 | 0.0 | 0.0 | 0.00 | 0.00 | 0.00 | 93 | 1020.7 |
| 20260507090032 | 51 | 119 | 0.9 | 1.7 | 0.00 | 0.00 | 0.00 | 93 | 1020.7 |
| 20260507085529 | 51 | 126 | 0.9 | 0.9 | 0.00 | 0.00 | 0.00 | 92 | 1020.7 |
| 20260507085026 | 51 | 102 | 0.9 | 1.7 | 0.00 | 0.00 | 0.00 | 92 | 1020.7 |
| 20260507084522 | 51 | 122 | 1.7 | 1.7 | 0.00 | 0.00 | 0.00 | 93 | 1020.7 |
| 20260507084020 | 51 | 111 | 1.7 | 1.7 | 0.00 | 0.00 | 0.00 | 92 | 1020.4 |
| 20260507083515 | 51 | 133 | 0.9 | 0.9 | 0.00 | 0.00 | 0.00 | 92 | 1020.7 |
| 20260507083013 | 51 | 132 | 0.0 | 0.0 | 0.00 | 0.00 | 0.00 | 92 | 1020.4 |
| 20260507082508 | 52 | 140 | 0.0 | 0.0 | 0.00 | 0.00 | 0.00 | 92 | 1020.4 |
| 20260507082005 | 52 | 128 | 0.0 | 0.9 | 0.00 | 0.00 | 0.00 | 92 | 1020.4 |
| 20260507081501 | 52 | 126 | 0.0 | 0.0 | 0.00 | 0.00 | 0.00 | 92 | 1020.4 |
| 20260507080958 | 52 | 119 | 0.9 | 0.9 | 0.00 | 0.00 | 0.00 | 92 | 1020.4 |
| 20260507080454 | 52 | 128 | 0.0 | 0.0 | 0.00 | 0.00 | 0.00 | 92 | 1020.0 |
| 20260507075950 | 52 | 119 | 0.9 | 0.9 | 0.00 | 0.00 | 0.00 | 91 | 1020.0 |
| 20260507075446 | 52 | 135 | 0.0 | 0.0 | 0.00 | 0.00 | 0.00 | 91 | 1020.4 |
| 20260507074943 | 52 | 122 | 0.9 | 0.9 | 0.00 | 0.00 | 0.00 | 91 | 1020.0 |
| 20260507074440 | 53 | 117 | 0.9 | 0.9 | 0.00 | 0.00 | 0.00 | 91 | 1019.7 |
| 20260507073938 | 53 | 118 | 0.9 | 0.9 | 0.00 | 0.00 | 0.00 | 91 | 1020.4 |
| 20260507073434 | 53 | 125 | 0.0 | 0.9 | 0.00 | 0.00 | 0.00 | 91 | 1020.0 |
| 20260507072931 | 53 | 125 | 0.0 | 0.9 | 0.00 | 0.00 | 0.00 | 91 | 1019.7 |
| 20260507072428 | 53 | 128 | 0.0 | 0.0 | 0.00 | 0.00 | 0.00 | 91 | 1019.7 |
| 20260507071926 | 53 | 126 | 0.0 | 0.0 | 0.00 | 0.00 | 0.00 | 90 | 1020.0 |
| 20260507071422 | 53 | 128 | 0.0 | 0.0 | 0.00 | 0.00 | 0.00 | 90 | 1019.7 |
| 20260507070919 | 53 | 141 | 0.9 | 1.7 | 0.00 | 0.00 | 0.00 | 90 | 1019.7 |
| 20260507070417 | 53 | 126 | 1.7 | 2.6 | 0.00 | 0.00 | 0.00 | 90 | 1019.7 |
| 20260507065913 | 54 | 128 | 0.0 | 0.0 | 0.00 | 0.00 | 0.00 | 90 | 1019.7 |
| 20260507065410 | 54 | 130 | 0.0 | 0.0 | 0.00 | 0.00 | 0.00 | 90 | 1019.7 |
| 20260507064907 | 54 | 125 | 0.0 | 0.9 | 0.00 | 0.00 | 0.00 | 90 | 1019.7 |
| 20260507064405 | 54 | 128 | 0.0 | 0.0 | 0.00 | 0.00 | 0.00 | 90 | 1019.7 |
| 20260507063903 | 54 | 127 | 0.0 | 0.0 | 0.00 | 0.00 | 0.00 | 90 | 1019.3 |
| 20260507063400 | 54 | 127 | 0.0 | 0.0 | 0.00 | 0.00 | 0.00 | 90 | 1019.3 |
| 20260507062856 | 54 | 126 | 0.0 | 0.0 | 0.00 | 0.00 | 0.00 | 90 | 1019.7 |
| 20260507062353 | 54 | 120 | 0.0 | 0.9 | 0.00 | 0.00 | 0.00 | 90 | 1019.7 |
| 20260507061851 | 54 | 128 | 0.0 | 0.0 | 0.00 | 0.00 | 0.00 | 90 | 1019.3 |
| 20260507061349 | 54 | 130 | 0.0 | 0.0 | 0.00 | 0.00 | 0.00 | 89 | 1019.7 |
| 20260507060847 | 54 | 130 | 0.0 | 0.0 | 0.00 | 0.00 | 0.00 | 89 | 1019.3 |
| 20260507060343 | 54 | 130 | 0.0 | 0.0 | 0.00 | 0.00 | 0.00 | 89 | 1019.0 |
| 20260507055840 | 54 | 131 | 0.0 | 0.0 | 0.00 | 0.00 | 0.00 | 90 | 1019.0 |
| 20260507055335 | 54 | 131 | 0.0 | 0.0 | 0.00 | 0.00 | 0.00 | 89 | 1019.0 |
| 20260507054832 | 54 | 133 | 0.0 | 0.0 | 0.00 | 0.00 | 0.00 | 89 | 1019.0 |
| 20260507054328 | 55 | 134 | 0.0 | 0.0 | 0.00 | 0.00 | 0.00 | 89 | 1018.7 |
| 20260507053826 | 55 | 131 | 0.0 | 0.0 | 0.00 | 0.00 | 0.00 | 89 | 1018.7 |
| 20260507053323 | 55 | 131 | 0.0 | 0.0 | 0.00 | 0.00 | 0.00 | 89 | 1018.7 |
| 20260507052822 | 55 | 136 | 0.0 | 0.0 | 0.00 | 0.00 | 0.00 | 89 | 1018.7 |
| 20260507052318 | 55 | 134 | 0.0 | 0.0 | 0.00 | 0.00 | 0.00 | 89 | 1018.7 |
| 20260507051816 | 55 | 128 | 0.0 | 0.0 | 0.00 | 0.00 | 0.00 | 88 | 1019.0 |
| 20260507051314 | 55 | 128 | 0.0 | 0.0 | 0.00 | 0.00 | 0.00 | 88 | 1018.7 |
| 20260507050810 | 55 | 128 | 0.0 | 0.0 | 0.00 | 0.00 | 0.00 | 88 | 1018.7 |
| 20260507050306 | 55 | 128 | 0.0 | 0.0 | 0.00 | 0.00 | 0.00 | 88 | 1018.7 |
| 20260507045804 | 55 | 129 | 0.0 | 0.0 | 0.00 | 0.12 | 0.12 | 88 | 1018.7 |
| 20260507045300 | 55 | 127 | 0.0 | 0.9 | 0.00 | 0.12 | 0.12 | 88 | 1018.3 |
| 20260507044757 | 55 | 135 | 0.0 | 0.0 | 0.00 | 0.12 | 0.12 | 88 | 1018.7 |
| 20260507044253 | 55 | 137 | 0.0 | 0.0 | 0.00 | 0.12 | 0.12 | 88 | 1018.3 |
| 20260507043750 | 55 | 130 | 0.0 | 0.0 | 0.00 | 0.12 | 0.12 | 87 | 1018.3 |
| 20260507043247 | 55 | 130 | 0.0 | 0.0 | 0.00 | 0.12 | 0.12 | 87 | 1018.7 |
| 20260507042743 | 56 | 131 | 0.0 | 0.0 | 0.00 | 0.12 | 0.12 | 87 | 1018.3 |
| 20260507042238 | 56 | 129 | 0.0 | 0.0 | 0.00 | 0.12 | 0.12 | 87 | 1018.7 |
| 20260507041736 | 56 | 137 | 0.0 | 0.9 | 0.00 | 0.12 | 0.12 | 87 | 1018.7 |
| 20260507041232 | 56 | 137 | 0.0 | 0.0 | 0.00 | 0.12 | 0.12 | 87 | 1018.7 |
| 20260507040729 | 56 | 134 | 0.0 | 0.0 | 0.00 | 0.12 | 0.12 | 86 | 1018.7 |
| 20260507040225 | 56 | 134 | 0.0 | 0.0 | 0.00 | 0.12 | 0.12 | 86 | 1018.7 |
| 20260507035721 | 56 | 131 | 0.0 | 0.0 | 0.00 | 0.12 | 0.12 | 86 | 1018.7 |
| 20260507035217 | 56 | 131 | 0.0 | 0.0 | 0.00 | 0.12 | 0.12 | 85 | 1018.7 |
| 20260507034714 | 56 | 133 | 0.0 | 0.0 | 0.00 | 0.12 | 0.12 | 85 | 1018.7 |
| 20260507034212 | 56 | 130 | 0.0 | 0.0 | 0.00 | 0.12 | 0.12 | 86 | 1018.7 |
| 20260507033710 | 56 | 130 | 0.0 | 0.0 | 0.00 | 0.12 | 0.12 | 85 | 1018.7 |
| 20260507033207 | 56 | 130 | 0.0 | 0.0 | 0.00 | 0.12 | 0.12 | 84 | 1018.7 |
| 20260507032704 | 56 | 130 | 0.0 | 0.0 | 0.00 | 0.12 | 0.12 | 84 | 1018.7 |
| 20260507032200 | 57 | 130 | 0.0 | 0.0 | 0.00 | 0.12 | 0.12 | 84 | 1018.3 |
| 20260507031657 | 57 | 130 | 0.0 | 0.0 | 0.00 | 0.12 | 0.12 | 83 | 1018.7 |
| 20260507031153 | 57 | 130 | 0.0 | 0.0 | 0.00 | 0.12 | 0.12 | 83 | 1018.3 |
| 20260507030650 | 57 | 133 | 0.0 | 0.0 | 0.00 | 0.12 | 0.12 | 83 | 1018.3 |
| 20260507030148 | 57 | 132 | 0.0 | 0.0 | 0.00 | 0.12 | 0.12 | 82 | 1018.3 |
| 20260507025645 | 58 | 132 | 0.0 | 0.0 | 0.00 | 0.12 | 0.12 | 82 | 1018.3 |
| 20260507025142 | 58 | 133 | 0.0 | 0.0 | 0.00 | 0.12 | 0.12 | 81 | 1018.0 |
| 20260507024640 | 58 | 131 | 0.0 | 0.0 | 0.00 | 0.12 | 0.12 | 81 | 1018.0 |
| 20260507024137 | 59 | 131 | 0.0 | 0.0 | 0.00 | 0.12 | 0.12 | 80 | 1018.0 |
| 20260507023632 | 59 | 132 | 0.0 | 0.0 | 0.00 | 0.12 | 0.12 | 79 | 1018.0 |
| 20260507023130 | 59 | 136 | 0.0 | 0.0 | 0.00 | 0.12 | 0.12 | 79 | 1018.3 |
| 20260507022627 | 59 | 131 | 0.0 | 0.0 | 0.00 | 0.12 | 0.12 | 79 | 1018.0 |
| 20260507022122 | 59 | 130 | 0.0 | 0.0 | 0.00 | 0.12 | 0.12 | 78 | 1018.0 |
| 20260507021619 | 60 | 129 | 0.0 | 0.0 | 0.00 | 0.12 | 0.12 | 77 | 1018.0 |
| 20260507021115 | 60 | 127 | 0.0 | 0.0 | 0.00 | 0.12 | 0.12 | 76 | 1017.6 |
| 20260507020613 | 60 | 72 | 0.9 | 1.7 | 0.00 | 0.12 | 0.12 | 75 | 1017.6 |
| 20260507020109 | 60 | 117 | 0.9 | 0.9 | 0.00 | 0.12 | 0.12 | 75 | 1017.2 |
| 20260507015608 | 60 | 110 | 0.9 | 0.9 | 0.00 | 0.12 | 0.12 | 75 | 1017.2 |
| 20260507015105 | 61 | 109 | 0.9 | 1.7 | 0.00 | 0.12 | 0.12 | 74 | 1017.2 |
| 20260507014601 | 61 | 122 | 0.9 | 1.7 | 0.00 | 0.12 | 0.12 | 75 | 1017.2 |
| 20260507014057 | 61 | 115 | 2.6 | 2.6 | 0.00 | 0.12 | 0.12 | 75 | 1017.2 |
| 20260507013554 | 61 | 121 | 0.9 | 1.7 | 0.00 | 0.12 | 0.12 | 75 | 1017.2 |
| 20260507013051 | 61 | 127 | 0.9 | 1.7 | 0.00 | 0.12 | 0.12 | 75 | 1017.2 |
| 20260507012548 | 62 | 122 | 0.9 | 0.9 | 0.00 | 0.12 | 0.12 | 74 | 1017.2 |
| 20260507012038 | 62 | 125 | 1.7 | 1.7 | 0.00 | 0.12 | 0.12 | 73 | 1016.9 |
| 20260507011536 | 62 | 120 | 0.9 | 0.9 | 0.00 | 0.12 | 0.12 | 73 | 1016.9 |
| 20260507011032 | 62 | 106 | 1.7 | 2.6 | 0.00 | 0.12 | 0.12 | 73 | 1016.9 |
| 20260507010526 | 63 | 119 | 0.9 | 2.6 | 0.00 | 0.12 | 0.12 | 72 | 1016.5 |
| 20260507010023 | 63 | 60 | 1.7 | 1.7 | 0.00 | 0.12 | 0.12 | 71 | 1016.5 |
| 20260507005521 | 64 | 127 | 0.0 | 0.9 | 0.00 | 0.12 | 0.12 | 70 | 1016.5 |
| 20260507005017 | 65 | 125 | 0.0 | 0.0 | 0.00 | 0.12 | 0.12 | 69 | 1016.2 |
| 20260507004514 | 64 | 106 | 0.0 | 0.0 | 0.00 | 0.12 | 0.12 | 70 | 1016.5 |
| 20260507004012 | 64 | 155 | 1.7 | 1.7 | 0.00 | 0.12 | 0.12 | 70 | 1016.2 |
| 20260507003507 | 64 | 108 | 1.7 | 1.7 | 0.00 | 0.12 | 0.12 | 70 | 1016.2 |
| 20260507003002 | 64 | 44 | 3.5 | 5.2 | 0.00 | 0.12 | 0.12 | 69 | 1016.2 |
| 20260507002459 | 65 | 130 | 0.9 | 1.7 | 0.00 | 0.12 | 0.12 | 68 | 1015.9 |
| 20260507001955 | 66 | 128 | 0.9 | 0.9 | 0.00 | 0.12 | 0.12 | 68 | 1015.9 |
| 20260507001452 | 66 | 16 | 2.6 | 2.6 | 0.00 | 0.12 | 0.12 | 67 | 1015.5 |
| 20260507000949 | 67 | 343 | 3.5 | 7.0 | 0.00 | 0.12 | 0.12 | 67 | 1015.9 |
| 20260507000445 | 67 | 44 | 2.6 | 4.3 | 0.00 | 0.12 | 0.12 | 66 | 1015.9 |
| 20260506235940 | 67 | 121 | 0.9 | 0.9 | 0.00 | 0.12 | 0.12 | 65 | 1015.9 |
| 20260506235438 | 68 | 353 | 3.5 | 4.3 | 0.00 | 0.12 | 0.12 | 65 | 1015.5 |
| 20260506234933 | 68 | 327 | 4.3 | 6.1 | 0.00 | 0.12 | 0.12 | 65 | 1015.5 |
| 20260506234432 | 68 | 122 | 6.1 | 8.7 | 0.00 | 0.12 | 0.12 | 65 | 1015.2 |
| 20260506233929 | 69 | 344 | 5.2 | 7.0 | 0.00 | 0.12 | 0.12 | 64 | 1015.5 |
| 20260506233425 | 70 | 355 | 4.3 | 7.0 | 0.00 | 0.12 | 0.12 | 62 | 1015.5 |
| 20260506232922 | 73 | 135 | 0.9 | 1.7 | 0.00 | 0.12 | 0.12 | 60 | 1015.2 |
| 20260506232418 | 72 | 134 | 0.0 | 0.0 | 0.00 | 0.12 | 0.12 | 61 | 1015.2 |
| 20260506231914 | 72 | 99 | 3.5 | 4.3 | 0.00 | 0.12 | 0.12 | 60 | 1015.2 |
| 20260506231412 | 74 | 138 | 0.0 | 0.0 | 0.00 | 0.12 | 0.12 | 58 | 1015.2 |
| 20260506230909 | 76 | 121 | 2.6 | 2.6 | 0.00 | 0.12 | 0.12 | 58 | 1015.2 |
| 20260506230405 | 76 | 136 | 0.0 | 0.9 | 0.00 | 0.12 | 0.12 | 56 | 1014.8 |
| 20260506225902 | 76 | 137 | 0.9 | 0.9 | 0.00 | 0.12 | 0.12 | 57 | 1014.8 |
| 20260506225359 | 76 | 143 | 0.0 | 0.9 | 0.00 | 0.12 | 0.12 | 56 | 1015.2 |
| 20260506224856 | 76 | 125 | 0.9 | 1.7 | 0.00 | 0.12 | 0.12 | 55 | 1014.8 |
| 20260506224354 | 75 | 140 | 0.0 | 0.9 | 0.00 | 0.12 | 0.12 | 59 | 1015.2 |
| 20260506223849 | 76 | 105 | 0.0 | 0.9 | 0.00 | 0.12 | 0.12 | 55 | 1015.2 |
| 20260506223345 | 75 | 138 | 0.9 | 0.9 | 0.00 | 0.12 | 0.12 | 58 | 1014.8 |
| 20260506222842 | 74 | 120 | 0.9 | 0.9 | 0.00 | 0.12 | 0.12 | 58 | 1014.8 |
| 20260506222338 | 74 | 144 | 0.0 | 0.0 | 0.00 | 0.12 | 0.12 | 59 | 1014.8 |
| 20260506221836 | 74 | 143 | 0.0 | 0.0 | 0.00 | 0.12 | 0.12 | 60 | 1014.8 |
| 20260506221333 | 73 | 141 | 0.0 | 0.9 | 0.00 | 0.12 | 0.12 | 61 | 1014.8 |
| 20260506220831 | 72 | 136 | 0.0 | 0.0 | 0.00 | 0.12 | 0.12 | 61 | 1014.8 |
| 20260506220326 | 72 | 138 | 0.0 | 0.0 | 0.00 | 0.12 | 0.12 | 63 | 1014.8 |
| 20260506215823 | 71 | 134 | 0.9 | 0.9 | 0.00 | 0.12 | 0.12 | 61 | 1014.8 |
| 20260506215318 | 73 | 106 | 0.9 | 1.7 | 0.00 | 0.12 | 0.12 | 58 | 1015.2 |
| 20260506214815 | 74 | 139 | 0.0 | 0.0 | 0.00 | 0.12 | 0.12 | 59 | 1014.8 |
| 20260506214311 | 73 | 135 | 0.0 | 0.0 | 0.00 | 0.12 | 0.12 | 61 | 1014.8 |
| 20260506213810 | 73 | 139 | 0.0 | 0.0 | 0.00 | 0.12 | 0.12 | 59 | 1014.8 |
| 20260506213307 | 72 | 134 | 0.0 | 0.0 | 0.00 | 0.12 | 0.12 | 62 | 1015.2 |
| 20260506212804 | 73 | 132 | 0.0 | 0.9 | 0.00 | 0.12 | 0.12 | 62 | 1015.2 |
| 20260506212300 | 72 | 136 | 0.0 | 0.0 | 0.00 | 0.12 | 0.12 | 63 | 1015.2 |
| 20260506211754 | 73 | 139 | 0.0 | 0.0 | 0.00 | 0.12 | 0.12 | 60 | 1015.2 |
| 20260506211251 | 72 | 123 | 3.5 | 4.3 | 0.00 | 0.12 | 0.12 | 63 | 1015.2 |
| 20260506210748 | 74 | 111 | 0.9 | 0.9 | 0.00 | 0.12 | 0.12 | 58 | 1015.2 |
| 20260506210245 | 73 | 136 | 1.7 | 1.7 | 0.00 | 0.12 | 0.12 | 60 | 1015.2 |
| 20260506205742 | 71 | 136 | 0.0 | 0.9 | 0.00 | 0.12 | 0.12 | 64 | 1015.2 |
| 20260506205238 | 71 | 131 | 1.7 | 1.7 | 0.00 | 0.12 | 0.12 | 63 | 1015.2 |
| 20260506204735 | 71 | 131 | 1.7 | 1.7 | 0.00 | 0.12 | 0.12 | 63 | 1015.5 |
| 20260506204232 | 70 | 123 | 0.9 | 0.9 | 0.00 | 0.12 | 0.12 | 62 | 1015.2 |
| 20260506203730 | 68 | 133 | 0.0 | 0.0 | 0.00 | 0.12 | 0.12 | 65 | 1015.2 |
| 20260506203227 | 69 | 124 | 0.0 | 0.9 | 0.00 | 0.12 | 0.12 | 66 | 1015.5 |
| 20260506202725 | 69 | 132 | 0.9 | 0.9 | 0.00 | 0.12 | 0.12 | 64 | 1015.9 |
| 20260506202221 | 70 | 126 | 0.9 | 0.9 | 0.00 | 0.12 | 0.12 | 63 | 1015.9 |
| 20260506201718 | 68 | 129 | 1.7 | 1.7 | 0.00 | 0.12 | 0.12 | 63 | 1015.5 |
| 20260506201215 | 69 | 44 | 1.7 | 1.7 | 0.00 | 0.12 | 0.12 | 63 | 1015.9 |
| 20260506200712 | 69 | 132 | 1.7 | 2.6 | 0.00 | 0.12 | 0.12 | 63 | 1015.9 |
| 20260506200208 | 69 | 126 | 0.9 | 1.7 | 0.00 | 0.12 | 0.12 | 64 | 1015.9 |
| 20260506195705 | 67 | 134 | 0.0 | 0.0 | 0.00 | 0.12 | 0.12 | 65 | 1015.9 |
| 20260506195201 | 69 | 132 | 0.0 | 0.9 | 0.00 | 0.12 | 0.12 | 63 | 1015.9 |
| 20260506194659 | 68 | 134 | 0.0 | 0.0 | 0.00 | 0.12 | 0.12 | 64 | 1015.9 |
| 20260506194155 | 67 | 112 | 0.0 | 0.9 | 0.00 | 0.12 | 0.12 | 66 | 1016.2 |
| 20260506193653 | 69 | 133 | 0.0 | 0.0 | 0.00 | 0.12 | 0.12 | 63 | 1016.2 |
| 20260506193149 | 68 | 134 | 0.0 | 0.9 | 0.00 | 0.12 | 0.12 | 65 | 1016.2 |
| 20260506192646 | 68 | 110 | 1.7 | 1.7 | 0.00 | 0.12 | 0.12 | 65 | 1016.2 |
| 20260506192142 | 66 | 132 | 0.0 | 0.0 | 0.00 | 0.12 | 0.12 | 67 | 1016.5 |
| 20260506191639 | 66 | 27 | 2.6 | 4.3 | 0.00 | 0.12 | 0.12 | 66 | 1016.5 |
| 20260506191135 | 66 | 254 | 2.6 | 4.3 | 0.00 | 0.12 | 0.12 | 64 | 1016.5 |
| 20260506190633 | 67 | 133 | 0.0 | 0.9 | 0.00 | 0.12 | 0.12 | 64 | 1016.5 |
| 20260506190129 | 67 | 140 | 0.9 | 0.9 | 0.00 | 0.12 | 0.12 | 67 | 1016.9 |
| 20260506185627 | 66 | 113 | 0.9 | 0.9 | 0.00 | 0.12 | 0.12 | 69 | 1016.9 |
| 20260506185123 | 64 | 107 | 1.7 | 1.7 | 0.00 | 0.12 | 0.12 | 68 | 1016.5 |
| 20260506184620 | 66 | 129 | 0.9 | 1.7 | 0.00 | 0.12 | 0.12 | 66 | 1016.9 |
| 20260506184117 | 65 | 69 | 3.5 | 4.3 | 0.00 | 0.12 | 0.12 | 67 | 1016.9 |
| 20260506183614 | 64 | 131 | 1.7 | 1.7 | 0.00 | 0.12 | 0.12 | 67 | 1016.9 |
| 20260506183110 | 63 | 50 | 1.7 | 4.3 | 0.00 | 0.12 | 0.12 | 68 | 1016.9 |
| 20260506182608 | 65 | 105 | 2.6 | 2.6 | 0.00 | 0.12 | 0.12 | 67 | 1016.5 |
| 20260506182105 | 64 | 136 | 0.0 | 0.0 | 0.00 | 0.12 | 0.12 | 71 | 1016.5 |
| 20260506181602 | 64 | 14 | 2.6 | 4.3 | 0.00 | 0.12 | 0.12 | 69 | 1016.5 |
| 20260506181059 | 64 | 354 | 2.6 | 2.6 | 0.00 | 0.12 | 0.12 | 70 | 1016.9 |
| 20260506180556 | 63 | 92 | 1.7 | 1.7 | 0.00 | 0.12 | 0.12 | 70 | 1016.9 |
| 20260506180053 | 63 | 337 | 1.7 | 6.1 | 0.00 | 0.12 | 0.12 | 71 | 1017.2 |
| 20260506175549 | 60 | 120 | 3.5 | 4.3 | 0.00 | 0.12 | 0.12 | 75 | 1016.9 |
| 20260506175045 | 62 | 107 | 0.9 | 0.9 | 0.00 | 0.12 | 0.12 | 73 | 1016.9 |
| 20260506174544 | 61 | 54 | 2.6 | 2.6 | 0.00 | 0.12 | 0.12 | 73 | 1016.9 |
| 20260506174039 | 60 | 115 | 2.6 | 4.3 | 0.00 | 0.12 | 0.12 | 74 | 1017.2 |
| 20260506173537 | 59 | 123 | 1.7 | 1.7 | 0.00 | 0.12 | 0.12 | 75 | 1017.2 |
| 20260506173034 | 59 | 108 | 1.7 | 2.6 | 0.00 | 0.12 | 0.12 | 76 | 1017.2 |
| 20260506172531 | 59 | 136 | 0.0 | 0.9 | 0.00 | 0.12 | 0.12 | 79 | 1017.2 |
| 20260506172022 | 58 | 138 | 0.0 | 0.0 | 0.00 | 0.12 | 0.12 | 79 | 1017.2 |
| 20260506171519 | 58 | 50 | 4.3 | 6.1 | 0.00 | 0.12 | 0.12 | 77 | 1017.2 |
| 20260506171017 | 59 | 133 | 0.0 | 0.0 | 0.00 | 0.12 | 0.12 | 81 | 1017.6 |
| 20260506170514 | 59 | 131 | 0.9 | 0.9 | 0.00 | 0.12 | 0.12 | 83 | 1017.2 |
| 20260506170012 | 58 | 130 | 0.0 | 0.0 | 0.00 | 0.12 | 0.12 | 83 | 1017.2 |
| 20260506165510 | 57 | 111 | 0.0 | 1.7 | 0.00 | 0.12 | 0.12 | 85 | 1017.2 |
| 20260506165006 | 56 | 162 | 0.9 | 1.7 | 0.00 | 0.12 | 0.12 | 86 | 1017.2 |
| 20260506164503 | 57 | 132 | 1.7 | 2.6 | 0.00 | 0.12 | 0.12 | 87 | 1016.9 |
| 20260506164000 | 56 | 123 | 4.3 | 6.1 | 0.00 | 0.12 | 0.12 | 88 | 1016.9 |
| 20260506163455 | 55 | 129 | 0.9 | 0.9 | 0.00 | 0.12 | 0.12 | 91 | 1016.9 |
| 20260506162950 | 55 | 128 | 0.0 | 0.9 | 0.00 | 0.12 | 0.12 | 93 | 1016.9 |
| 20260506162448 | 55 | 62 | 0.9 | 1.7 | 0.00 | 0.12 | 0.12 | 94 | 1016.9 |
| 20260506161945 | 54 | 126 | 0.0 | 0.9 | 0.00 | 0.12 | 0.12 | 95 | 1017.2 |
| 20260506161443 | 54 | 47 | 2.6 | 4.3 | 0.00 | 0.12 | 0.12 | 95 | 1016.9 |
| 20260506160940 | 53 | 121 | 2.6 | 2.6 | 0.00 | 0.12 | 0.12 | 95 | 1016.5 |
| 20260506160438 | 52 | 133 | 0.0 | 0.0 | 0.00 | 0.12 | 0.12 | 97 | 1016.5 |
| 20260506155935 | 51 | 14 | 2.6 | 2.6 | 0.00 | 0.12 | 0.12 | 97 | 1016.5 |
| 20260506155432 | 51 | 335 | 1.7 | 4.3 | 0.00 | 0.12 | 0.12 | 97 | 1016.5 |
| 20260506153554 | 51 | 122 | 2.6 | 4.3 | 0.00 | 0.12 | 0.12 | 97 | 1016.9 |
| 20260506153052 | 51 | 107 | 0.0 | 0.0 | 0.00 | 0.12 | 0.12 | 97 | 1016.9 |
| 20260506152548 | 51 | 118 | 0.9 | 0.9 | 0.00 | 0.12 | 0.12 | 97 | 1016.9 |
| 20260506152046 | 51 | 130 | 0.0 | 0.9 | 0.00 | 0.12 | 0.12 | 97 | 1016.5 |
| 20260506151544 | 52 | 233 | 4.3 | 7.0 | 0.00 | 0.12 | 0.12 | 97 | 1016.2 |
| 20260506151041 | 51 | 133 | 0.0 | 0.0 | 0.00 | 0.12 | 0.12 | 98 | 1016.5 |
| 20260506150537 | 51 | 78 | 3.5 | 5.2 | 0.00 | 0.12 | 0.12 | 97 | 1015.9 |
| 20260506150034 | 51 | 327 | 1.7 | 2.6 | 0.00 | 0.12 | 0.12 | 97 | 1016.2 |
| 20260506145531 | 52 | 31 | 2.6 | 2.6 | 0.00 | 0.12 | 0.12 | 97 | 1016.5 |
| 20260506145029 | 52 | 113 | 0.9 | 0.9 | 0.00 | 0.12 | 0.12 | 97 | 1016.5 |
| 20260506144525 | 52 | 119 | 2.6 | 2.6 | 0.00 | 0.12 | 0.12 | 97 | 1016.9 |
| 20260506144023 | 51 | 35 | 0.9 | 1.7 | 0.07 | 0.12 | 0.12 | 96 | 1016.9 |
| 20260506143520 | 51 | 129 | 0.0 | 0.9 | 0.12 | 0.12 | 0.12 | 96 | 1016.9 |
| 20260506143018 | 51 | 131 | 0.0 | 0.9 | 0.19 | 0.11 | 0.11 | 96 | 1016.9 |
| 20260506142516 | 51 | 114 | 1.7 | 1.7 | 0.24 | 0.09 | 0.09 | 95 | 1016.9 |
| 20260506142014 | 51 | 82 | 3.5 | 5.2 | 0.19 | 0.07 | 0.07 | 95 | 1017.2 |
| 20260506141511 | 51 | 114 | 0.9 | 1.7 | 0.12 | 0.05 | 0.05 | 94 | 1018.3 |
| 20260506141010 | 51 | 116 | 1.7 | 1.7 | 0.05 | 0.04 | 0.04 | 94 | 1019.0 |
| 20260506140506 | 51 | 109 | 1.7 | 1.7 | 0.00 | 0.03 | 0.03 | 93 | 1018.3 |
| 20260506140004 | 52 | 129 | 0.0 | 0.0 | 0.07 | 0.03 | 0.03 | 93 | 1018.0 |
| 20260506135500 | 51 | 133 | 0.9 | 0.9 | 0.07 | 0.03 | 0.03 | 93 | 1017.2 |
| 20260506134956 | 51 | 308 | 3.5 | 5.2 | 0.05 | 0.02 | 0.02 | 92 | 1016.9 |
| 20260506134452 | 52 | 116 | 2.6 | 4.3 | 0.05 | 0.02 | 0.02 | 91 | 1016.9 |
| 20260506133949 | 52 | 128 | 1.7 | 2.6 | 0.07 | 0.01 | 0.01 | 90 | 1016.5 |
| 20260506133446 | 52 | 118 | 2.6 | 2.6 | 0.07 | 0.01 | 0.01 | 89 | 1016.9 |
| 20260506132943 | 52 | 109 | 0.0 | 0.0 | 0.00 | 0.00 | 0.00 | 88 | 1016.9 |
| 20260506132440 | 52 | 123 | 0.9 | 0.9 | 0.00 | 0.00 | 0.00 | 87 | 1016.5 |
| 20260506131938 | 53 | 16 | 3.5 | 7.0 | 0.00 | 0.00 | 0.00 | 87 | 1016.2 |
| 20260506131434 | 53 | 128 | 0.9 | 0.9 | 0.00 | 0.00 | 0.00 | 86 | 1016.2 |
| 20260506130931 | 53 | 55 | 2.6 | 2.6 | 0.00 | 0.00 | 0.00 | 84 | 1016.9 |
| 20260506130428 | 53 | 39 | 3.5 | 5.2 | 0.00 | 0.00 | 0.00 | 83 | 1016.9 |
| 20260506125926 | 53 | 106 | 1.7 | 2.6 | 0.00 | 0.00 | 0.00 | 83 | 1017.2 |
| 20260506125424 | 53 | 75 | 2.6 | 2.6 | 0.00 | 0.00 | 0.00 | 82 | 1017.2 |
| 20260506124922 | 53 | 100 | 2.6 | 2.6 | 0.00 | 0.00 | 0.00 | 82 | 1016.5 |
| 20260506124419 | 53 | 357 | 3.5 | 4.3 | 0.00 | 0.00 | 0.00 | 81 | 1015.9 |
| 20260506123917 | 53 | 85 | 0.9 | 0.9 | 0.00 | 0.00 | 0.00 | 82 | 1015.9 |
| 20260506123414 | 53 | 133 | 0.0 | 0.0 | 0.00 | 0.00 | 0.00 | 82 | 1015.5 |
| 20260506122912 | 53 | 140 | 0.0 | 0.9 | 0.00 | 0.00 | 0.00 | 82 | 1015.2 |
| 20260506122408 | 53 | 142 | 0.0 | 0.0 | 0.00 | 0.00 | 0.00 | 82 | 1015.2 |
| 20260506121907 | 53 | 129 | 0.0 | 0.0 | 0.00 | 0.00 | 0.00 | 82 | 1015.2 |
| 20260506121403 | 53 | 122 | 2.6 | 4.3 | 0.00 | 0.00 | 0.00 | 82 | 1014.8 |
| 20260506120900 | 53 | 88 | 2.6 | 4.3 | 0.00 | 0.00 | 0.00 | 82 | 1014.8 |
| 20260506120358 | 53 | 15 | 1.7 | 4.3 | 0.00 | 0.00 | 0.00 | 82 | 1014.8 |
| 20260506115855 | 53 | 5 | 0.9 | 1.7 | 0.00 | 0.00 | 0.00 | 82 | 1014.8 |
| 20260506115353 | 53 | 124 | 2.6 | 4.3 | 0.00 | 0.00 | 0.00 | 81 | 1014.8 |
| 20260506114851 | 53 | 352 | 6.1 | 8.7 | 0.00 | 0.00 | 0.00 | 81 | 1015.2 |
| 20260506114348 | 53 | 104 | 3.5 | 5.2 | 0.00 | 0.00 | 0.00 | 82 | 1014.8 |
| 20260506113847 | 53 | 73 | 3.5 | 5.2 | 0.00 | 0.00 | 0.00 | 81 | 1014.8 |
| 20260506113344 | 53 | 134 | 0.9 | 1.7 | 0.00 | 0.00 | 0.00 | 81 | 1015.2 |
| 20260506112840 | 53 | 121 | 3.5 | 5.2 | 0.00 | 0.00 | 0.00 | 81 | 1014.8 |
| 20260506112338 | 53 | 323 | 2.6 | 4.3 | 0.00 | 0.00 | 0.00 | 81 | 1014.8 |
| 20260506111835 | 54 | 113 | 0.9 | 1.7 | 0.00 | 0.00 | 0.00 | 82 | 1014.8 |
| 20260506111333 | 54 | 343 | 6.1 | 7.0 | 0.00 | 0.00 | 0.00 | 83 | 1014.8 |
| 20260506110830 | 54 | 43 | 4.3 | 5.2 | 0.00 | 0.00 | 0.00 | 83 | 1014.8 |
| 20260506110327 | 54 | 112 | 3.5 | 5.2 | 0.00 | 0.00 | 0.00 | 82 | 1014.8 |
| 20260506105824 | 54 | 114 | 0.9 | 1.7 | 0.00 | 0.00 | 0.00 | 82 | 1014.5 |
| 20260506105320 | 54 | 56 | 3.5 | 5.2 | 0.00 | 0.00 | 0.00 | 81 | 1014.5 |
| 20260506104818 | 54 | 112 | 1.7 | 1.7 | 0.00 | 0.00 | 0.00 | 82 | 1014.1 |
| 20260506104316 | 54 | 327 | 6.1 | 7.8 | 0.00 | 0.00 | 0.00 | 82 | 1014.1 |
| 20260506103813 | 54 | 326 | 4.3 | 6.1 | 0.00 | 0.00 | 0.00 | 81 | 1014.1 |
| 20260506103311 | 55 | 112 | 2.6 | 2.6 | 0.00 | 0.00 | 0.00 | 81 | 1014.1 |
| 20260506102808 | 55 | 122 | 2.6 | 4.3 | 0.00 | 0.00 | 0.00 | 81 | 1013.7 |
| 20260506102306 | 55 | 62 | 1.7 | 1.7 | 0.00 | 0.00 | 0.00 | 81 | 1014.1 |
| 20260506101803 | 55 | 34 | 3.5 | 5.2 | 0.00 | 0.00 | 0.00 | 81 | 1013.7 |
| 20260506101258 | 55 | 86 | 3.5 | 7.8 | 0.00 | 0.00 | 0.00 | 82 | 1013.7 |
| 20260506100757 | 55 | 86 | 2.6 | 4.3 | 0.00 | 0.00 | 0.00 | 82 | 1013.4 |
| 20260506100255 | 55 | 115 | 1.7 | 1.7 | 0.00 | 0.00 | 0.00 | 83 | 1013.4 |
| 20260506095753 | 55 | 75 | 4.3 | 5.2 | 0.00 | 0.00 | 0.00 | 82 | 1013.4 |
| 20260506095250 | 56 | 133 | 0.0 | 0.0 | 0.00 | 0.00 | 0.00 | 83 | 1013.4 |
| 20260506094746 | 56 | 128 | 2.6 | 4.3 | 0.00 | 0.00 | 0.00 | 82 | 1013.1 |
| 20260506094245 | 56 | 114 | 0.0 | 0.9 | 0.00 | 0.00 | 0.00 | 82 | 1013.1 |